Location: Artiguedieu
(43.5000°N, 0.5454°E)
Time: 09:56:29
(UTC+00:00)

Explorer 7 - Pass Details

Date: 08 August 2021
Orbit: 484 x 676 km, 50.3° (Epoch: 22 September)

Event Time Altitude Azimuth Distance (km) Brightness Sun altitude
Rises 07:24:30 0° 299° (WNW) 2,605 9.8 25.6°
Reaches altitude 10° 07:26:39 10° 301° (WNW) 1,741 9.0 26.0°
Maximum altitude 07:30:35 75° 27° (NNE) 557 7.4 26.7°
Drops below altitude 10° 07:34:46 10° 113° (ESE) 1,840 10.9 27.4°
Sets 07:37:05 0° 116° (ESE) 2,770 11.4 27.8°
